TimeEDT,TemperatureF,Dew PointF,Humidity,Sea Level PressureIn,VisibilityMPH,Wind Direction,Wind SpeedMPH,Gust SpeedMPH,PrecipitationIn,Events,Conditions,WindDirDegrees,DateUTC
12:51 AM,30.9,16.0,54,30.23,10.0,NE,6.9,-,N/A,,Overcast,40,2013-04-12 04:51:00
1:51 AM,30.9,17.1,57,30.22,10.0,North,4.6,-,N/A,,Overcast,10,2013-04-12 05:51:00
2:51 AM,30.0,17.1,59,30.21,10.0,NNW,3.5,-,N/A,,Overcast,340,2013-04-12 06:51:00
3:51 AM,30.0,18.0,61,30.21,10.0,Calm,Calm,-,0.00,,Overcast,0,2013-04-12 07:51:00
4:51 AM,28.9,21.9,75,30.22,10.0,Calm,Calm,-,0.01,,Overcast,0,2013-04-12 08:51:00
5:11 AM,30.2,21.2,69,30.17,10.0,Calm,Calm,-,0.00,Rain,Light Freezing Rain,0,2013-04-12 09:11:00
5:46 AM,28.4,24.8,86,30.17,4.0,Calm,Calm,-,0.04,Rain,Light Freezing Rain,0,2013-04-12 09:46:00
5:51 AM,28.9,24.1,82,30.21,4.0,ENE,3.5,-,0.05,Rain,Light Freezing Rain,70,2013-04-12 09:51:00
5:59 AM,28.4,24.8,86,30.16,5.0,Calm,Calm,-,0.01,,Overcast,0,2013-04-12 09:59:00
6:16 AM,28.4,26.6,93,30.16,8.0,NE,4.6,-,0.02,Rain,Light Freezing Rain,50,2013-04-12 10:16:00
6:48 AM,28.4,28.4,100,30.15,10.0,East,3.5,-,0.02,,Overcast,80,2013-04-12 10:48:00
6:51 AM,28.9,28.0,96,30.19,10.0,East,3.5,-,0.02,,Overcast,80,2013-04-12 10:51:00
7:37 AM,30.2,26.6,86,30.15,2.5,SE,4.6,-,0.02,Rain,Light Freezing Rain,130,2013-04-12 11:37:00
7:51 AM,30.0,27.0,88,30.17,1.8,ESE,6.9,-,0.06,Rain,Light Freezing Rain,110,2013-04-12 11:51:00
8:09 AM,30.2,26.6,86,30.13,2.5,ESE,6.9,-,0.04,Rain,Light Freezing Rain,120,2013-04-12 12:09:00
8:16 AM,30.2,28.4,93,30.12,5.0,ESE,5.8,-,0.04,Rain,Light Freezing Rain,120,2013-04-12 12:16:00
8:30 AM,30.2,28.4,93,30.11,5.0,SE,3.5,-,0.04,,Overcast,130,2013-04-12 12:30:00
8:51 AM,30.0,27.0,88,30.15,6.0,SE,5.8,-,0.04,,Overcast,140,2013-04-12 12:51:00
9:51 AM,30.0,26.1,85,30.12,10.0,SE,6.9,-,N/A,,Overcast,140,2013-04-12 13:51:00
10:51 AM,28.4,24.8,86,30.04,7.0,SSE,11.5,-,N/A,,Overcast,150,2013-04-12 14:51:00
11:51 AM,28.9,24.1,82,30.06,3.0,SSE,15.0,-,0.03,,Overcast,160,2013-04-12 15:51:00
11:58 AM,28.4,24.8,86,30.01,1.8,SSE,10.4,20.7,0.02,,Overcast,160,2013-04-12 15:58:00
12:41 PM,28.4,26.6,93,29.96,1.5,SSE,8.1,-,0.13,,Overcast,150,2013-04-12 16:41:00
12:51 PM,28.0,26.1,92,30.01,1.5,SSE,9.2,-,0.15,,Overcast,150,2013-04-12 16:51:00
1:06 PM,28.4,26.6,93,29.97,1.8,South,11.5,-,0.04,,Overcast,170,2013-04-12 17:06:00
1:38 PM,28.4,26.6,93,29.97,2.5,South,11.5,17.3,0.10,,Overcast,190,2013-04-12 17:38:00
1:51 PM,28.9,26.1,89,30.02,2.0,South,9.2,-,0.12,,Overcast,190,2013-04-12 17:51:00
1:58 PM,28.4,26.6,93,29.97,1.2,South,11.5,18.4,0.01,,Overcast,170,2013-04-12 17:58:00
2:13 PM,28.4,26.6,93,29.96,2.0,SSE,15.0,24.2,0.02,Snow,Light Snow,160,2013-04-12 18:13:00
2:28 PM,28.4,26.6,93,29.95,1.2,South,13.8,-,0.02,Snow,Light Snow,170,2013-04-12 18:28:00
2:34 PM,28.4,26.6,93,29.95,0.8,South,10.4,-,0.02,Snow,Light Snow,170,2013-04-12 18:34:00
2:51 PM,30.0,27.0,88,30.00,1.2,SSE,9.2,18.4,0.03,Snow,Light Snow,160,2013-04-12 18:51:00
2:57 PM,30.2,26.6,86,29.95,2.0,SSE,10.4,-,0.00,Snow,Light Snow,150,2013-04-12 18:57:00
3:05 PM,30.2,26.6,86,29.95,4.0,SSE,10.4,-,0.00,,Overcast,160,2013-04-12 19:05:00
3:51 PM,30.0,27.0,88,29.98,3.0,SSE,10.4,19.6,0.00,Rain,Light Freezing Rain,160,2013-04-12 19:51:00
4:23 PM,30.2,26.6,86,29.91,10.0,South,11.5,21.9,0.00,,Overcast,170,2013-04-12 20:23:00
4:44 PM,30.2,26.6,86,29.90,2.5,South,10.4,-,0.00,Rain,Light Freezing Rain,170,2013-04-12 20:44:00
4:51 PM,30.0,28.0,92,29.95,2.5,South,10.4,-,0.00,Rain,Light Freezing Rain,170,2013-04-12 20:51:00
5:01 PM,30.2,28.4,93,29.89,4.0,South,12.7,-,0.00,Rain,Light Freezing Rain,170,2013-04-12 21:01:00
5:12 PM,30.2,28.4,93,29.89,2.5,South,12.7,-,0.01,Rain,Light Freezing Rain,170,2013-04-12 21:12:00
5:19 PM,30.2,28.4,93,29.89,3.0,South,11.5,-,0.01,Rain,Light Freezing Rain,180,2013-04-12 21:19:00
5:51 PM,30.9,28.0,89,29.94,5.0,SSE,13.8,-,0.01,Rain,Light Freezing Rain,160,2013-04-12 21:51:00
5:58 PM,30.2,28.4,93,29.88,4.0,South,10.4,19.6,N/A,,Overcast,170,2013-04-12 21:58:00
6:51 PM,30.9,28.9,92,29.92,6.0,South,9.2,-,N/A,,Overcast,180,2013-04-12 22:51:00
7:40 PM,30.2,28.4,93,29.86,4.0,South,11.5,-,0.00,Rain,Light Freezing Rain,180,2013-04-12 23:40:00
7:51 PM,30.9,28.9,92,29.91,5.0,South,8.1,-,0.00,Rain,Light Freezing Rain,170,2013-04-12 23:51:00
8:18 PM,30.2,28.4,93,29.87,5.0,South,9.2,-,0.00,,Overcast,170,2013-04-13 00:18:00
8:51 PM,30.9,28.9,92,29.91,5.0,South,4.6,-,0.01,,Overcast,190,2013-04-13 00:51:00
9:51 PM,30.9,28.9,92,29.91,10.0,South,5.8,-,0.00,,Overcast,190,2013-04-13 01:51:00
10:20 PM,30.2,28.4,93,29.87,7.0,South,4.6,-,0.01,,Overcast,190,2013-04-13 02:20:00
10:45 PM,30.2,28.4,93,29.87,5.0,SW,6.9,-,0.02,Rain,Light Freezing Rain,220,2013-04-13 02:45:00
10:51 PM,30.9,30.0,96,29.91,5.0,SSW,5.8,-,0.03,Rain,Light Freezing Rain,210,2013-04-13 02:51:00
10:57 PM,30.2,30.2,100,29.86,8.0,SSW,4.6,-,0.00,,Overcast,210,2013-04-13 02:57:00
11:44 PM,30.2,28.4,93,29.87,10.0,South,6.9,-,0.00,,Overcast,180,2013-04-13 03:44:00
11:51 PM,30.9,28.9,92,29.91,3.0,SSW,8.1,-,0.01,Snow,Light Snow,210,2013-04-13 03:51:00
11:58 PM,30.2,28.4,93,29.86,2.0,South,3.5,-,0.01,Snow,Light Snow,190,2013-04-13 03:58:00